• In Hungary
  • List of Countries
  • For 7 days
  • Water Temperature
  • Satellite Maps
  • Weather Map
  • News
  • Weather Widgets
  • user-avatar
    Login

    Hourly Weather Maracay

    Today, 26 May, Saturday

    Time Temperature Precipitation Wind Pressure Humidity
    00:00 +24°C° 0 mm 1 mps 712 mmHg 87%
    01:00 +24°C° 0 mm 1 mps 711 mmHg 85%
    02:00 +23°C° 0 mm 1 mps 711 mmHg 84%
    03:00 +23°C° 0 mm 1 mps 711 mmHg 84%
    04:00 +23°C° 0 mm 1 mps 711 mmHg 83%
    05:00 +24°C° 0 mm 1 mps 711 mmHg 79%
    06:00 +25°C° 0 mm 2 mps 712 mmHg 74%
    07:00 +26°C° 0 mm 2 mps 712 mmHg 70%
    08:00 +28°C° 0 mm 2 mps 713 mmHg 64%
    09:00 +29°C° 0 mm 2 mps 713 mmHg 58%
    10:00 +31°C° 0 mm 2 mps 713 mmHg 52%
    11:00 +32°C° 0 mm 2 mps 712 mmHg 49%
    12:00 +33°C° 0 mm 3 mps 712 mmHg 46%
    13:00 +34°C° 0 mm 3 mps 711 mmHg 44%
    14:00 +34°C° 0 mm 3 mps 710 mmHg 45%
    15:00 +33°C° 0 mm 3 mps 710 mmHg 45%
    16:00 +33°C° 0 mm 3 mps 709 mmHg 46%
    17:00 +30°C° 0 mm 2 mps 709 mmHg 53%
    18:00 +28°C° 0 mm 2 mps 710 mmHg 59%
    19:00 +26°C° 0 mm 2 mps 710 mmHg 65%
    20:00 +25°C° 0 mm 2 mps 710 mmHg 68%
    21:00 +25°C° 0 mm 2 mps 711 mmHg 70%
    22:00 +24°C° 0 mm 2 mps 711 mmHg 73%
    23:00 +24°C° 0 mm 2 mps 711 mmHg 73%

    Tomorrow, 27 May, Sunday

    Time Temperature Precipitation Wind Pressure Humidity
    00:00 +24°C° 0 mm 1 mps 711 mmHg 73%
    01:00 +24°C° 0 mm 1 mps 710 mmHg 74%
    02:00 +23°C° 0 mm 1 mps 710 mmHg 73%
    03:00 +23°C° 0 mm 1 mps 710 mmHg 72%
    04:00 +23°C° 0 mm 1 mps 710 mmHg 72%
    05:00 +24°C° 0 mm 1 mps 711 mmHg 71%
    06:00 +25°C° 0 mm 2 mps 711 mmHg 71%
    07:00 +26°C° 0 mm 2 mps 712 mmHg 71%
    08:00 +28°C° 0 mm 2 mps 712 mmHg 66%
    09:00 +29°C° 0 mm 2 mps 713 mmHg 62%
    10:00 +31°C° 0 mm 2 mps 713 mmHg 58%
    11:00 +31°C° 0.2 mm 3 mps 712 mmHg 58%
    12:00 +33°C° 0.2 mm 3 mps 712 mmHg 57%
    13:00 +33°C° 0.2 mm 3 mps 711 mmHg 57%
    14:00 +31°C° 0.5 mm 3 mps 711 mmHg 60%
    15:00 +30°C° 0.5 mm 3 mps 710 mmHg 64%
    16:00 +30°C° 0.5 mm 3 mps 709 mmHg 67%
    17:00 +28°C° 0.1 mm 2 mps 710 mmHg 72%
    18:00 +27°C° 0.1 mm 2 mps 710 mmHg 77%
    19:00 +26°C° 0.1 mm 2 mps 711 mmHg 82%
    20:00 +25°C° 0.1 mm 2 mps 711 mmHg 82%
    21:00 +25°C° 0.1 mm 2 mps 712 mmHg 83%
    22:00 +25°C° 0.1 mm 2 mps 712 mmHg 84%
    23:00 +24°C° 0 mm 2 mps 712 mmHg 84%

    Day after tomorrow, 28 May, Monday

    Time Temperature Precipitation Wind Pressure Humidity
    00:00 +24°C° 0 mm 2 mps 711 mmHg 84%
    01:00 +24°C° 0 mm 1 mps 711 mmHg 84%
    02:00 +24°C° 0 mm 1 mps 711 mmHg 84%
    03:00 +24°C° 0 mm 2 mps 711 mmHg 85%
    04:00 +23°C° 0 mm 2 mps 711 mmHg 86%
    05:00 +24°C° 0 mm 2 mps 711 mmHg 84%
    06:00 +25°C° 0 mm 2 mps 712 mmHg 82%
    07:00 +25°C° 0 mm 2 mps 712 mmHg 81%
    08:00 +26°C° 0 mm 2 mps 713 mmHg 76%
    09:00 +27°C° 0 mm 2 mps 713 mmHg 72%
    10:00 +28°C° 0 mm 2 mps 713 mmHg 67%
    11:00 +29°C° 0 mm 2 mps 713 mmHg 63%
    12:00 +31°C° 0 mm 3 mps 712 mmHg 59%
    13:00 +33°C° 0 mm 3 mps 712 mmHg 54%
    14:00 +31°C° 0.2 mm 3 mps 711 mmHg 57%
    15:00 +30°C° 0.2 mm 3 mps 711 mmHg 60%
    16:00 +30°C° 0.2 mm 3 mps 710 mmHg 63%
    17:00 +28°C° 0.1 mm 3 mps 711 mmHg 69%
    18:00 +27°C° 0.1 mm 2 mps 711 mmHg 76%
    19:00 +25°C° 0.1 mm 2 mps 712 mmHg 82%
    20:00 +25°C° 0 mm 2 mps 712 mmHg 83%
    21:00 +25°C° 0 mm 1 mps 712 mmHg 84%
    22:00 +24°C° 0 mm 1 mps 713 mmHg 86%
    23:00 +24°C° 0 mm 1 mps 712 mmHg 85%

    29 May, Tuesday

    Time Temperature Precipitation Wind Pressure Humidity
    00:00 +24°C° 0 mm 1 mps 712 mmHg 84%
    01:00 +24°C° 0 mm 1 mps 711 mmHg 84%
    02:00 +24°C° 0 mm 1 mps 711 mmHg 83%
    03:00 +24°C° 0 mm 1 mps 711 mmHg 83%
    04:00 +24°C° 0 mm 1 mps 711 mmHg 83%
    05:00 +24°C° 0 mm 1 mps 712 mmHg 80%
    06:00 +25°C° 0 mm 2 mps 712 mmHg 78%
    07:00 +25°C° 0 mm 2 mps 713 mmHg 75%
    08:00 +27°C° 0 mm 2 mps 713 mmHg 70%
    09:00 +29°C° 0 mm 2 mps 713 mmHg 64%
    10:00 +30°C° 0 mm 2 mps 714 mmHg 59%
    11:00 +30°C° 0.3 mm 2 mps 713 mmHg 59%
    12:00 +31°C° 0.3 mm 3 mps 712 mmHg 59%
    13:00 +31°C° 0.3 mm 3 mps 712 mmHg 59%
    14:00 +30°C° 1.2 mm 3 mps 711 mmHg 65%
    15:00 +29°C° 1.2 mm 3 mps 711 mmHg 71%
    16:00 +28°C° 1.2 mm 2 mps 710 mmHg 77%
    17:00 +27°C° 0.6 mm 2 mps 711 mmHg 81%
    18:00 +25°C° 0.6 mm 2 mps 711 mmHg 85%
    19:00 +24°C° 0.6 mm 1 mps 711 mmHg 89%
    20:00 +24°C° 0 mm 1 mps 712 mmHg 90%
    21:00 +24°C° 0 mm 1 mps 712 mmHg 91%
    22:00 +24°C° 0 mm 1 mps 712 mmHg 91%
    23:00 +23°C° 0 mm 1 mps 712 mmHg 91%

    30 May, Wednesday

    Time Temperature Precipitation Wind Pressure Humidity
    00:00 +23°C° 0 mm 1 mps 712 mmHg 91%
    01:00 +23°C° 0 mm 1 mps 711 mmHg 91%
    02:00 +23°C° 0 mm 1 mps 711 mmHg 90%
    03:00 +23°C° 0 mm 1 mps 711 mmHg 90%
    04:00 +23°C° 0 mm 1 mps 711 mmHg 89%
    05:00 +24°C° 0 mm 1 mps 712 mmHg 85%
    06:00 +25°C° 0 mm 1 mps 712 mmHg 82%
    07:00 +25°C° 0 mm 1 mps 713 mmHg 78%
    08:00 +27°C° 0 mm 2 mps 713 mmHg 70%
    09:00 +29°C° 0 mm 2 mps 713 mmHg 62%
    10:00 +31°C° 0 mm 2 mps 713 mmHg 54%
    11:00 +31°C° 0 mm 3 mps 713 mmHg 52%
    12:00 +33°C° 0 mm 3 mps 712 mmHg 49%
    13:00 +33°C° 0 mm 3 mps 711 mmHg 47%
    14:00 +33°C° 0 mm 3 mps 711 mmHg 48%
    15:00 +33°C° 0 mm 3 mps 710 mmHg 50%
    16:00 +31°C° 0 mm 3 mps 710 mmHg 51%
    17:00 +29°C° 0 mm 2 mps 710 mmHg 58%
    18:00 +27°C° 0 mm 2 mps 710 mmHg 65%
    19:00 +26°C° 0 mm 2 mps 710 mmHg 73%
    20:00 +25°C° 0 mm 2 mps 711 mmHg 75%
    21:00 +25°C° 0 mm 2 mps 711 mmHg 77%
    22:00 +24°C° 0 mm 2 mps 711 mmHg 79%
    23:00 +24°C° 0 mm 1 mps 711 mmHg 81%

    31 May, Thursday

    Time Temperature Precipitation Wind Pressure Humidity
    00:00 +24°C° 0 mm 1 mps 711 mmHg 82%
    01:00 +23°C° 0 mm 1 mps 710 mmHg 84%
    02:00 +23°C° 0 mm 1 mps 710 mmHg 84%
    03:00 +23°C° 0 mm 1 mps 711 mmHg 83%
    04:00 +23°C° 0 mm 1 mps 711 mmHg 83%
    05:00 +24°C° 0 mm 1 mps 711 mmHg 78%
    06:00 +25°C° 0 mm 1 mps 712 mmHg 73%
    07:00 +26°C° 0 mm 1 mps 713 mmHg 68%
    08:00 +28°C° 0 mm 2 mps 713 mmHg 62%
    09:00 +30°C° 0 mm 2 mps 713 mmHg 57%
    10:00 +31°C° 0 mm 2 mps 713 mmHg 51%
    11:00 +31°C° 0.3 mm 3 mps 712 mmHg 53%
    12:00 +31°C° 0.3 mm 3 mps 712 mmHg 55%
    13:00 +31°C° 0.3 mm 3 mps 711 mmHg 57%
    14:00 +31°C° 0.6 mm 3 mps 710 mmHg 60%
    15:00 +30°C° 0.6 mm 3 mps 710 mmHg 64%
    16:00 +29°C° 0.6 mm 2 mps 710 mmHg 67%
    17:00 +28°C° 0.1 mm 2 mps 710 mmHg 72%
    18:00 +27°C° 0.1 mm 2 mps 710 mmHg 76%
    19:00 +25°C° 0.1 mm 1 mps 711 mmHg 81%
    20:00 +25°C° 0 mm 1 mps 711 mmHg 82%
    21:00 +25°C° 0 mm 1 mps 711 mmHg 83%
    22:00 +24°C° 0 mm 1 mps 711 mmHg 84%
    23:00 +24°C° 0 mm 1 mps 711 mmHg 83%
    Show more